Flag for Switzerland Weather past 2 weeks in Martigny, Valais, Switzerland

Now
59 °F

Cool.


Feels Like: 59 °F
Forecast: 60 / 74 °F
Wind: 1 mph from South

Location: Sion

Current Time: Sep 30, 2014 at 10:43:41 PM

Latest Report: Sep 30, 2014 at 10:00 PM


Visibility: N/A

Pressure: 30.32 "Hg

Humidity: 96%

Dew point: 58 °F

Location of MartignyLocation

Historic Weather in Martigny — Graph

°F

Martigny temperature yesterday

Maximum temperature yesterday: 76 °F (at 4:00 PM)
Minimum temperature yesterday: 50 °F (at 8:00 AM)
Average temperature yesterday: 61 °F

Past Weeks' High & Low Weather Summary

 TemperatureHumidityPressure
High79 °F (Sep 16, 4:00 PM)97% (Sep 22, 12:00 AM)30.37 "Hg (Sep 22, 12:00 AM)
Low44 °F (Sep 23, 6:00 AM)38% (Sep 23, 3:00 PM)29.81 "Hg (Sep 17, 4:00 PM)
Average61 °F73%30.09 "Hg
* Reported Sep 15 9:00 PM — Sep 30 9:00 PM, Martigny, Weather by CustomWeather, © 2014

Note: Actual official high and low records may vary slightly from our data, if they occured in-between our weather recording intervals... More about our weather records

Advertising

Martigny weather history for previous 24 hours

 ConditionsComfort  
Time TempWeatherWind HumidityBarometerVisibility
9:00 PM
Sep 30
59 °FCool.No wind95%30.32 "HgN/A
8:00 PM60 °FOvercast.1 mph95%30.30 "Hg12 mi
7:00 PM61 °FCool.1 mph91%30.30 "HgN/A
6:00 PM63 °FMild.No wind85%30.29 "HgN/A
5:00 PM63 °FOvercast.No wind85%30.29 "Hg12 mi
4:00 PM62 °FMild.1 mph84%30.30 "HgN/A
3:00 PM61 °FCool.1 mph87%30.32 "HgN/A
2:00 PM61 °FRain. Overcast.No wind89%30.33 "Hg9 mi
1:00 PM61 °FCool.2 mph90%30.34 "HgN/A
12:00 PM60 °FCool.2 mph82%30.33 "HgN/A
11:00 AM61 °FOvercast.3 mph82%30.33 "Hg12 mi
10:00 AM61 °FCool.2 mph78%30.32 "HgN/A
9:00 AM59 °FCool.1 mph83%30.32 "HgN/A
8:00 AM58 °FOvercast.1 mph85%30.32 "Hg12 mi
7:00 AM58 °FCool.2 mph84%30.31 "HgN/A
6:00 AM57 °FCool.1 mph87%30.32 "HgN/A
5:00 AM57 °FPassing clouds.2 mph91%30.32 "Hg12 mi
4:00 AM57 °FCool.2 mph90%30.32 "HgN/A
3:00 AM58 °FCool.2 mph88%30.31 "HgN/A
2:00 AM60 °FPassing clouds.2 mph79%30.31 "Hg12 mi
1:00 AM61 °FCool.2 mph75%30.31 "HgN/A
12:00 AM58 °FCool.2 mph87%30.32 "HgN/A
11:00 PM
Sep 29
60 °FPassing clouds.2 mph84%30.31 "Hg12 mi
10:00 PM63 °FMild.No wind76%30.29 "HgN/A
Weather by CustomWeather, © 2014

See weather overviewHow to use our weather pages